Hourly Data Report for October 18, 2003

SHERBROOKE A
QUEBEC

45°26'00.000" N
71°41'00.000" W
241.40 m
7028124
71610
YSC

Download Data

Hourly Data (October 2003)
Hourly Data Report for October 18, 2003
TIME
LST
Temp Definition
°C
Dew Point Definition
°C
Rel Hum Definition
%
Precip. Amount Definition
mm

Wind Dir Definition
10's deg

Wind Spd Definition
km/h
Visibility Definition
km
Stn Press Definition
kPa
Hmdx Definition


Wind Chill Definition


Weather Definition


00:00 2.8 1.0 88   22 6 15.0 98.98      
01:00 2.6 0.9 89   21 6 15.0 98.97      
02:00 2.8 0.9 87   20 4 15.0 98.94      
03:00 1.9 0.5 90     0 15.0 98.92      
04:00 1.1 -0.1 92   19 4 15.0 98.89      
05:00 -0.5 -1.8 91     0 12.9 98.89      
06:00 -0.2 -1.2 93     0 15.0 98.89      
07:00 0.9 0.0 94     0 24.1 98.91     Cloudy
08:00 1.9 0.9 93   9 4 24.1 98.87     Cloudy
09:00 3.0 -0.1 80   32 4 16.1 98.87     Rain,Snow Grains
10:00 2.9 0.3 83   35 6 24.1 98.85     Snow,Ice Pellets
11:00 4.1 1.4 83     0 24.1 98.79     Rain
12:00 4.9 0.8 75     0 24.1 98.71     Cloudy
13:00 5.3 -0.5 66     0 24.1 98.66     Cloudy
14:00 3.7 1.8 87   21 6 19.3 98.65     Rain Showers,Snow Showers
15:00 4.0 1.8 86   22 4 24.1 98.62     Cloudy
16:00 4.1 1.4 83     0 24.1 98.60     Cloudy
17:00 3.5 2.2 91     0 15.0 98.60     Rain
18:00 3.1 2.1 93     0 15.0 98.61     Rain
19:00 2.8 1.9 94   22 4 15.0 98.61      
20:00 2.7 1.8 94     0 15.0 98.62      
21:00 2.2 1.3 94     0 9.7 98.61     Rain
22:00 2.4 1.4 93   26 4 11.3 98.59      
23:00 2.1 0.8 91     0 15.0 98.56     Rain

Notes on Data Quality.

Legend

  • E = Estimated
  • M = Missing
  • NA = Not Available*
  • [empty] = Indicates an unobserved value
Date modified: